TimeMST,TemperatureF,Dew PointF,Humidity,Sea Level PressureIn,VisibilityMPH,Wind Direction,Wind SpeedMPH,Gust SpeedMPH,PrecipitationIn,Events,Conditions,WindDirDegrees,DateUTC
12:53 AM,19.9,18.0,92,29.92,10.0,ESE,3.5,-,N/A,,Clear,120,2013-12-22 07:53:00
1:53 AM,19.0,17.1,92,29.97,10.0,ENE,4.6,-,N/A,,Clear,60,2013-12-22 08:53:00
2:53 AM,18.0,15.1,88,30.00,10.0,Calm,Calm,-,N/A,,Clear,0,2013-12-22 09:53:00
3:53 AM,17.1,14.0,88,30.04,10.0,East,4.6,-,N/A,,Clear,80,2013-12-22 10:53:00
4:53 AM,16.0,12.0,84,30.08,10.0,NNE,4.6,-,N/A,,Clear,30,2013-12-22 11:53:00
5:53 AM,15.1,10.0,80,30.13,10.0,NNE,4.6,-,N/A,,Clear,20,2013-12-22 12:53:00
6:19 AM,15.8,10.4,79,30.00,10.0,ENE,6.9,-,N/A,,Mostly Cloudy,70,2013-12-22 13:19:00
6:40 AM,15.8,10.4,79,30.02,10.0,ENE,3.5,-,N/A,,Scattered Clouds,70,2013-12-22 13:40:00
6:53 AM,15.1,10.9,84,30.17,10.0,Calm,Calm,-,N/A,,Clear,0,2013-12-22 13:53:00
7:53 AM,16.0,10.0,77,30.21,10.0,NE,4.6,-,N/A,,Clear,40,2013-12-22 14:53:00
8:53 AM,19.0,14.0,81,30.23,10.0,Calm,Calm,-,N/A,,Partly Cloudy,0,2013-12-22 15:53:00
9:53 AM,25.0,17.1,72,30.22,10.0,SE,5.8,-,N/A,,Scattered Clouds,130,2013-12-22 16:53:00
10:53 AM,26.1,19.0,75,30.25,10.0,Calm,Calm,-,N/A,,Scattered Clouds,0,2013-12-22 17:53:00
11:53 AM,28.9,19.0,67,30.24,10.0,Variable,3.5,-,N/A,,Clear,0,2013-12-22 18:53:00
12:53 PM,30.9,16.0,54,30.22,10.0,WSW,4.6,-,N/A,,Clear,250,2013-12-22 19:53:00
1:53 PM,33.1,14.0,46,30.22,10.0,Variable,6.9,-,N/A,,Clear,0,2013-12-22 20:53:00
2:53 PM,34.0,15.1,46,30.22,10.0,South,8.1,-,N/A,,Clear,190,2013-12-22 21:53:00
3:53 PM,34.0,15.1,46,30.23,10.0,WSW,10.4,-,N/A,,Clear,250,2013-12-22 22:53:00
4:53 PM,30.9,14.0,50,30.25,10.0,SW,10.4,-,N/A,,Clear,230,2013-12-22 23:53:00
5:53 PM,28.9,12.9,51,30.29,10.0,WSW,12.7,-,N/A,,Clear,250,2013-12-23 00:53:00
6:53 PM,28.0,12.9,53,30.31,10.0,WSW,13.8,-,N/A,,Clear,250,2013-12-23 01:53:00
7:53 PM,25.0,14.0,63,30.34,10.0,West,4.6,-,N/A,,Clear,270,2013-12-23 02:53:00
8:53 PM,21.9,14.0,72,30.37,10.0,NNW,5.8,-,N/A,,Clear,340,2013-12-23 03:53:00
9:53 PM,21.0,15.1,78,30.36,10.0,Calm,Calm,-,N/A,,Clear,0,2013-12-23 04:53:00
10:53 PM,21.0,14.0,74,30.38,10.0,Calm,Calm,-,N/A,,Clear,0,2013-12-23 05:53:00
11:53 PM,17.1,14.0,88,30.40,10.0,East,3.5,-,N/A,,Clear,80,2013-12-23 06:53:00